User: anonymous   Login
Location: Unspecified
(0.0000°N, 0.0000°E)
Time: 23:17:25
(UTC+00:00)
Language:

STARLINK-5767 - Orbit

View from above orbital plane
View from above orbital plane
View from above satellite
View from above satellite

Ground track
Ground track

The orbit is defined by the following mean orbital elements,

1 55586U          26144.88673698 +.00000000 +00000-0 -19405-3 0 00007
2 55586  42.9992 295.1008 0001354 306.2892  53.7835 15.27618245    06
Epoch (UTC): 24 May 2026 21:16:54
Eccentricity: 0.0001354
inclination: 42.9992°
perigee height: 482 km
apogee height: 484 km
right ascension of ascending node: 295.1008°
argument of perigee: 306.2892°
revolutions per day: 15.27618245
mean anomaly at epoch: 53.7835°

The dashed part of the orbit path shows where the satellite is in the earth's shadow,  

DLR